When you browse on this site, cookies collect data to enhance your experience and personalize the content and advertising you see.
Visit our Privacy Policy to learn more. By continuing to use the site, you agree to this use of cookies and data.
  • In Germany
  • List of Countries
  • For 7 days
  • Water Temperature
  • Satellite Maps
  • Weather Map
  • Weather Widgets
  • user-avatar
    Login

    Hourly Weather Macapa

    Today, 14 December, Friday

    Time Temperature Precipitation Wind Pressure Humidity
    00:00 +26°C° 0.5 mm 2 mps 759 mmHg 97%
    01:00 +25°C° 0.4 mm 2 mps 759 mmHg 97%
    02:00 +25°C° 0.4 mm 2 mps 759 mmHg 97%
    03:00 +25°C° 0 mm 2 mps 759 mmHg 97%
    04:00 +25°C° 1.7 mm 2 mps 759 mmHg 97%
    05:00 +25°C° 1.7 mm 2 mps 759 mmHg 97%
    06:00 +25°C° 1.7 mm 2 mps 759 mmHg 97%
    07:00 +26°C° 1.5 mm 2 mps 759 mmHg 95%
    08:00 +27°C° 1.5 mm 2 mps 760 mmHg 92%
    09:00 +27°C° 1.5 mm 2 mps 760 mmHg 89%
    10:00 +28°C° 1 mm 2 mps 760 mmHg 87%
    11:00 +29°C° 1 mm 3 mps 760 mmHg 84%
    12:00 +29°C° 1 mm 3 mps 760 mmHg 81%
    13:00 +29°C° 0.6 mm 3 mps 760 mmHg 82%
    14:00 +29°C° 0.6 mm 3 mps 759 mmHg 83%
    15:00 +29°C° 0.6 mm 4 mps 759 mmHg 84%
    16:00 +28°C° 0.5 mm 4 mps 759 mmHg 87%
    17:00 +27°C° 0.5 mm 4 mps 758 mmHg 90%
    18:00 +27°C° 0.5 mm 3 mps 758 mmHg 93%
    19:00 +26°C° 0.2 mm 3 mps 759 mmHg 94%
    20:00 +26°C° 0.2 mm 3 mps 759 mmHg 95%
    21:00 +25°C° 0.2 mm 3 mps 760 mmHg 96%
    22:00 +25°C° 0 mm 3 mps 760 mmHg 97%
    23:00 +25°C° 0 mm 2 mps 760 mmHg 97%

    Tomorrow, 15 December, Saturday

    Time Temperature Precipitation Wind Pressure Humidity
    00:00 +25°C° 0 mm 2 mps 761 mmHg 97%
    01:00 +25°C° 0.2 mm 2 mps 760 mmHg 97%
    02:00 +25°C° 0.2 mm 2 mps 760 mmHg 98%
    03:00 +25°C° 0.2 mm 2 mps 760 mmHg 98%
    04:00 +25°C° 0.5 mm 1 mps 760 mmHg 98%
    05:00 +25°C° 0.5 mm 1 mps 760 mmHg 98%
    06:00 +25°C° 0.5 mm 1 mps 760 mmHg 98%
    07:00 +25°C° 0.3 mm 1 mps 760 mmHg 96%
    08:00 +26°C° 0.3 mm 1 mps 761 mmHg 94%
    09:00 +27°C° 0.3 mm 1 mps 761 mmHg 92%
    10:00 +28°C° 0.1 mm 2 mps 761 mmHg 85%
    11:00 +29°C° 0.1 mm 2 mps 761 mmHg 78%
    12:00 +30°C° 0.1 mm 2 mps 761 mmHg 72%
    13:00 +30°C° 0.1 mm 2 mps 760 mmHg 69%
    14:00 +31°C° 0.1 mm 2 mps 760 mmHg 66%
    15:00 +31°C° 0.1 mm 2 mps 759 mmHg 64%
    16:00 +30°C° 0.2 mm 2 mps 759 mmHg 70%
    17:00 +29°C° 0.2 mm 2 mps 759 mmHg 77%
    18:00 +28°C° 0.2 mm 2 mps 759 mmHg 83%
    19:00 +27°C° 0.5 mm 2 mps 759 mmHg 87%
    20:00 +26°C° 0.5 mm 2 mps 760 mmHg 90%
    21:00 +26°C° 0.5 mm 2 mps 761 mmHg 93%
    22:00 +26°C° 0.7 mm 2 mps 761 mmHg 94%
    23:00 +25°C° 0.7 mm 2 mps 761 mmHg 95%

    Day after tomorrow, 16 December, Sunday

    Time Temperature Precipitation Wind Pressure Humidity
    00:00 +25°C° 0.7 mm 2 mps 761 mmHg 96%
    01:00 +25°C° 0.5 mm 2 mps 760 mmHg 97%
    02:00 +25°C° 0.5 mm 2 mps 760 mmHg 97%
    03:00 +25°C° 0.5 mm 2 mps 759 mmHg 98%
    04:00 +25°C° 0.6 mm 2 mps 759 mmHg 98%
    05:00 +24°C° 0.6 mm 2 mps 760 mmHg 98%
    06:00 +24°C° 0.6 mm 2 mps 760 mmHg 98%
    07:00 +25°C° 0.7 mm 2 mps 760 mmHg 94%
    08:00 +26°C° 0.7 mm 2 mps 761 mmHg 91%
    09:00 +28°C° 0.7 mm 2 mps 761 mmHg 87%
    10:00 +28°C° 1.2 mm 2 mps 761 mmHg 85%
    11:00 +29°C° 1.2 mm 2 mps 761 mmHg 83%
    12:00 +29°C° 1.2 mm 2 mps 761 mmHg 81%
    13:00 +29°C° 2.2 mm 2 mps 760 mmHg 81%
    14:00 +30°C° 2.2 mm 2 mps 759 mmHg 82%
    15:00 +30°C° 2.2 mm 2 mps 758 mmHg 82%
    16:00 +29°C° 2.4 mm 2 mps 758 mmHg 86%
    17:00 +28°C° 2.4 mm 2 mps 758 mmHg 90%
    18:00 +27°C° 2.4 mm 2 mps 758 mmHg 93%
    19:00 +26°C° 1.5 mm 2 mps 759 mmHg 94%
    20:00 +26°C° 1.5 mm 3 mps 759 mmHg 95%
    21:00 +26°C° 1.5 mm 3 mps 760 mmHg 96%
    22:00 +25°C° 1.3 mm 2 mps 760 mmHg 96%
    23:00 +25°C° 1.3 mm 2 mps 760 mmHg 96%

    17 December, Monday

    Time Temperature Precipitation Wind Pressure Humidity
    00:00 +25°C° 1.3 mm 2 mps 760 mmHg 97%
    01:00 +25°C° 0.7 mm 2 mps 759 mmHg 97%
    02:00 +25°C° 0.7 mm 2 mps 759 mmHg 97%
    03:00 +25°C° 0.7 mm 1 mps 758 mmHg 98%
    04:00 +25°C° 0.6 mm 1 mps 758 mmHg 98%
    05:00 +25°C° 0.6 mm 1 mps 759 mmHg 98%
    06:00 +25°C° 0.6 mm 1 mps 759 mmHg 98%
    07:00 +26°C° 0.6 mm 1 mps 759 mmHg 94%
    08:00 +27°C° 0.6 mm 1 mps 760 mmHg 91%
    09:00 +28°C° 0.6 mm 1 mps 760 mmHg 88%
    10:00 +28°C° 1.1 mm 2 mps 760 mmHg 86%
    11:00 +29°C° 1.1 mm 2 mps 760 mmHg 84%
    12:00 +30°C° 1.1 mm 3 mps 760 mmHg 82%
    13:00 +30°C° 0.8 mm 3 mps 759 mmHg 82%
    14:00 +30°C° 0.8 mm 3 mps 758 mmHg 82%
    15:00 +30°C° 0.8 mm 3 mps 757 mmHg 82%
    16:00 +29°C° 0.3 mm 3 mps 757 mmHg 84%
    17:00 +29°C° 0.3 mm 3 mps 757 mmHg 86%
    18:00 +28°C° 0.3 mm 3 mps 758 mmHg 88%
    19:00 +27°C° 0 mm 3 mps 758 mmHg 90%
    20:00 +27°C° 0 mm 3 mps 759 mmHg 92%
    21:00 +26°C° 0 mm 3 mps 759 mmHg 93%
    22:00 +26°C° 0 mm 2 mps 759 mmHg 94%
    23:00 +26°C° 0 mm 2 mps 760 mmHg 95%

    18 December, Tuesday

    Time Temperature Precipitation Wind Pressure Humidity
    00:00 +25°C° 0 mm 2 mps 760 mmHg 95%
    01:00 +25°C° 1.2 mm 2 mps 759 mmHg 96%
    02:00 +25°C° 1.2 mm 2 mps 758 mmHg 97%
    03:00 +25°C° 1.2 mm 2 mps 758 mmHg 98%
    04:00 +25°C° 0.6 mm 2 mps 758 mmHg 98%
    05:00 +25°C° 0.6 mm 1 mps 758 mmHg 98%
    06:00 +24°C° 0.6 mm 1 mps 758 mmHg 98%
    07:00 +26°C° 0.6 mm 1 mps 759 mmHg 95%
    08:00 +27°C° 0.6 mm 1 mps 760 mmHg 92%
    09:00 +28°C° 0.6 mm 2 mps 760 mmHg 89%
    10:00 +28°C° 0.7 mm 2 mps 760 mmHg 86%
    11:00 +29°C° 0.7 mm 2 mps 760 mmHg 84%
    12:00 +30°C° 0.7 mm 2 mps 759 mmHg 82%
    13:00 +30°C° 1.1 mm 2 mps 759 mmHg 83%
    14:00 +30°C° 1.1 mm 2 mps 758 mmHg 84%
    15:00 +30°C° 1.1 mm 3 mps 757 mmHg 85%
    16:00 +29°C° 0.5 mm 3 mps 757 mmHg 88%
    17:00 +28°C° 0.5 mm 3 mps 757 mmHg 90%
    18:00 +27°C° 0.5 mm 3 mps 757 mmHg 93%
    19:00 +27°C° 0.1 mm 3 mps 758 mmHg 94%
    20:00 +26°C° 0.1 mm 3 mps 759 mmHg 96%
    21:00 +26°C° 0.1 mm 3 mps 759 mmHg 97%
    22:00 +26°C° 0.4 mm 2 mps 759 mmHg 98%
    23:00 +25°C° 0.4 mm 2 mps 759 mmHg 98%

    19 December, Wednesday

    Time Temperature Precipitation Wind Pressure Humidity
    00:00 +25°C° 0.4 mm 2 mps 759 mmHg 98%
    01:00 +25°C° 0.5 mm 2 mps 759 mmHg 98%
    02:00 +25°C° 0.5 mm 2 mps 758 mmHg 98%
    03:00 +25°C° 0.5 mm 2 mps 758 mmHg 98%
    04:00 +25°C° 0.8 mm 2 mps 758 mmHg 98%
    05:00 +25°C° 0.8 mm 2 mps 758 mmHg 98%
    06:00 +25°C° 0.8 mm 2 mps 758 mmHg 98%
    07:00 +26°C° 0.8 mm 2 mps 759 mmHg 95%
    08:00 +27°C° 0.8 mm 2 mps 759 mmHg 92%
    09:00 +28°C° 0.8 mm 2 mps 760 mmHg 89%
    10:00 +28°C° 0.7 mm 3 mps 760 mmHg 87%
    11:00 +29°C° 0.7 mm 3 mps 759 mmHg 85%
    12:00 +29°C° 0.7 mm 3 mps 759 mmHg 83%
    13:00 +30°C° 0.6 mm 3 mps 758 mmHg 82%
    14:00 +30°C° 0.6 mm 3 mps 757 mmHg 82%
    15:00 +30°C° 0.6 mm 3 mps 757 mmHg 82%
    16:00 +29°C° 0.4 mm 3 mps 757 mmHg 85%
    17:00 +28°C° 0.4 mm 3 mps 757 mmHg 88%
    18:00 +28°C° 0.4 mm 3 mps 757 mmHg 91%
    19:00 +27°C° 0.1 mm 3 mps 757 mmHg 92%
    20:00 +26°C° 0.1 mm 3 mps 758 mmHg 94%
    21:00 +26°C° 0.1 mm 3 mps 758 mmHg 95%
    22:00 +26°C° 0.1 mm 2 mps 759 mmHg 96%
    23:00 +25°C° 0.1 mm 2 mps 759 mmHg 96%
    Show more